User: anonymous   Login
Location: Vale
(35.4830°N, 81.3830°W)
Time: 04:48:00
(UTC-04:00)
Language:

Cosmos 2237 Rocket - Orbit

View from above orbital plane
View from above orbital plane
View from above satellite
View from above satellite

Ground track
Ground track

The orbit data is extracted from the following two-line orbital elements,

1 22566U 93016B   15107.83367373  .00000146  00000-0  10034-3 0  9996
2 22566 071.0064 287.9488 0012459 258.6568 101.3155 14.14892943139338
Epoch (UTC): 17 April 2015 20:00:29
Eccentricity: 0.0012459
inclination: 71.0064°
perigee height: 833 km
apogee height: 851 km
right ascension of ascending node: 287.9488°
argument of perigee: 258.6568°
revolutions per day: 14.14892943
mean anomaly at epoch: 101.3155°
orbit number at epoch: 13933

The dashed part of the orbit path shows where the satellite is in the earth's shadow,  

DLR